Date,TemperatureHighF,TemperatureAvgF,TemperatureLowF,DewpointHighF,DewpointAvgF,DewpointLowF,HumidityHigh,HumidityAvg,HumidityLow,PressureMaxIn,PressureMinIn,WindSpeedMaxMPH,WindSpeedAvgMPH,GustSpeedMaxMPH,PrecipitationSumIn
2014-1-1,39.2,33.9,28.5,21.8,19.7,14.9,64,56,48,30.44,30.15,0,0,0,0.00
2014-1-2,39.5,31.5,26.7,19.2,15.8,9.5,65,52,40,30.45,30.22,0,0,0,0.00
2014-1-3,32.7,30.9,29.0,11.3,9.5,8.4,47,40,36,30.21,30.09,0,0,0,0.00
2014-1-4,34.4,23.3,18.6,23.2,11.3,4.8,92,61,48,30.36,29.76,3,0,12,0.12
2014-1-5,20.0,16.9,14.3,4.4,3.2,1.3,59,54,49,30.51,30.33,0,0,0,0.00
2014-1-6,29.8,21.8,15.2,5.5,2.2,-2.8,54,42,29,30.73,30.44,0,0,0,0.01
2014-1-7,35.8,29.6,23.6,20.2,12.0,3.9,64,48,36,30.39,30.11,0,0,0,0.02
2014-1-8,33.2,30.2,26.7,29.9,24.8,18.3,92,81,61,30.18,30.09,0,0,0,0.02
2014-1-9,34.7,28.6,25.8,27.9,23.6,21.6,89,82,76,30.13,29.98,0,0,0,0.00
2014-1-10,40.6,33.2,25.4,23.7,20.5,16.4,76,60,44,30.20,30.06,0,0,0,0.00
2014-1-11,50.1,41.6,33.5,24.6,22.9,17.8,64,48,28,30.15,29.66,0,0,0,0.00
2014-1-12,44.3,30.2,26.9,29.0,20.0,13.7,92,67,43,30.43,29.66,0,0,0,0.00
2014-1-13,41.3,34.8,27.9,21.3,18.2,13.7,57,50,44,30.47,30.36,0,0,0,0.00
2014-1-14,38.5,33.0,29.5,20.5,17.9,16.5,62,54,45,30.67,30.44,0,0,0,0.02
2014-1-15,39.5,30.7,26.3,19.9,16.4,11.8,69,56,40,30.65,30.48,0,0,0,0.00
2014-1-16,36.5,30.5,25.8,18.2,14.3,11.2,63,51,44,30.58,30.46,0,0,0,0.00
2014-1-17,40.6,31.5,26.0,15.7,11.6,8.8,55,43,32,30.51,30.32,0,0,0,0.00
2014-1-18,40.8,32.3,26.6,16.3,12.3,7.2,54,43,30,30.47,30.33,0,0,0,0.00
2014-1-19,58.8,35.0,22.7,25.6,15.9,8.5,69,48,25,30.43,30.12,3,1,5,0.00
2014-1-20,40.8,32.2,24.7,22.2,15.1,10.0,69,50,35,30.60,30.10,2,0,4,0.00
2014-1-21,51.0,30.3,20.9,20.7,13.1,8.6,70,51,28,30.63,30.21,2,1,5,0.00
2014-1-22,38.2,30.1,23.8,17.8,13.0,9.3,70,49,38,30.31,30.04,0,0,0,0.00
2014-1-23,23.8,22.1,19.8,17.5,15.9,14.4,84,77,70,30.28,30.16,5,2,6,0.00
2014-1-24,49.8,27.5,15.7,20.7,9.4,0.2,70,49,27,30.74,30.48,4,1,6,0.00
2014-1-25,36.9,29.2,17.2,12.0,6.8,0.8,67,39,31,30.57,30.32,1,0,2,0.00
2014-1-26,38.6,30.2,23.2,14.9,7.7,0.6,64,39,30,30.31,30.11,3,0,5,0.00
2014-1-27,45.5,31.3,22.2,17.2,12.7,8.6,66,48,24,30.21,30.03,3,0,5,0.00
2014-1-28,34.7,28.2,21.5,18.0,13.9,6.9,86,56,31,30.42,30.17,2,0,3,0.00
2014-1-29,49.9,36.3,29.8,33.0,20.2,7.5,92,54,35,30.28,29.61,0,0,0,0.03
2014-1-30,32.7,30.7,28.1,30.4,27.9,24.1,93,89,71,29.86,29.71,0,0,0,0.08
2014-1-31,30.1,27.5,22.2,28.3,24.3,15.2,96,88,71,29.96,29.77,3,0,4,0.08
2014-2-1,30.7,25.0,21.1,26.8,20.4,15.0,90,83,72,30.19,29.95,4,1,9,0.03
2014-2-2,34.4,23.5,15.3,27.6,14.8,8.9,92,71,44,30.22,30.02,3,1,6,0.62
2014-2-3,37.9,25.6,15.5,26.9,17.8,9.1,88,72,58,30.03,29.78,3,2,7,0.00
2014-2-4,33.7,24.5,17.6,27.4,20.9,12.5,93,86,77,30.23,29.78,4,2,13,0.00
2014-2-5,30.3,20.7,12.2,23.0,15.0,8.3,90,78,68,30.29,30.08,3,2,6,0.00
2014-2-6,33.5,26.1,18.8,25.4,17.5,10.9,91,72,41,30.08,29.86,2,0,9,0.00
2014-2-7,39.6,34.3,27.3,25.3,20.7,13.4,89,60,36,29.92,29.82,0,0,0,0.00
2014-2-8,44.2,39.4,34.0,34.9,28.9,23.7,91,67,44,30.02,29.78,0,0,0,0.20
2014-2-9,40.6,37.4,33.8,35.5,32.8,31.2,93,84,69,30.02,29.92,0,0,0,0.37
2014-2-10,38.8,34.5,29.8,33.3,29.7,20.3,94,83,61,30.25,29.91,0,0,0,0.25
2014-2-11,42.8,33.9,28.2,26.3,23.0,20.3,75,64,48,30.25,30.13,0,0,0,0.00
2014-2-12,45.7,37.0,31.3,29.2,23.8,19.8,67,59,45,30.23,29.99,0,0,0,0.00
2014-2-13,54.5,44.5,38.8,37.0,31.5,25.2,84,62,37,30.09,29.90,0,0,0,0.06
2014-2-14,51.3,43.4,38.5,33.9,31.6,28.4,81,64,41,30.05,29.89,0,0,0,0.00
2014-2-15,60.4,50.2,44.6,29.8,20.1,15.4,51,31,17,29.94,29.76,0,0,0,0.01
2014-2-16,55.7,44.0,30.4,28.8,20.5,15.1,69,43,21,30.18,29.64,0,0,0,0.00
2014-2-17,52.5,41.9,27.9,21.2,13.4,6.0,69,33,15,30.24,29.77,0,0,0,0.00
2014-2-18,52.0,42.8,36.2,18.1,12.5,6.0,41,30,19,30.05,29.82,0,0,0,0.00
2014-2-19,45.4,33.6,24.8,26.0,15.4,6.5,87,49,30,30.13,29.66,0,0,0,0.00
2014-2-20,35.6,28.2,21.9,13.0,7.7,4.7,59,42,29,30.37,30.16,0,0,0,0.03
2014-2-21,45.4,35.6,27.3,18.0,12.6,8.2,52,39,29,30.21,29.94,0,0,0,0.00
2014-2-22,46.5,38.1,29.8,17.5,12.1,7.9,45,34,25,29.98,29.89,0,0,0,0.00
2014-2-23,54.5,42.8,32.7,18.7,12.8,7.9,46,31,17,30.03,29.89,0,0,0,0.00
2014-2-24,55.1,45.2,36.8,17.5,14.1,9.8,37,28,20,30.01,29.88,0,0,0,0.00
2014-2-25,56.5,45.9,38.2,28.7,19.3,14.7,54,35,23,29.97,29.84,0,0,0,0.00
2014-2-26,56.9,45.7,37.6,30.0,25.5,14.0,69,48,25,29.97,29.70,0,0,0,0.00
2014-2-27,50.1,41.5,34.9,38.2,29.9,15.1,92,67,28,29.76,29.47,0,0,0,0.30
2014-2-28,42.8,36.5,33.7,29.4,26.2,23.3,81,66,53,29.82,29.71,0,0,0,0.00
2014-3-1,46.1,40.3,34.6,35.6,25.3,20.0,79,56,35,29.77,29.39,0,0,0,0.07
2014-3-2,51.1,41.8,33.7,28.5,24.6,20.1,74,52,32,30.00,29.77,0,0,0,0.00
2014-3-3,45.2,41.8,38.3,29.5,27.8,25.7,68,58,46,30.04,29.90,0,0,0,0.00
2014-3-4,45.2,38.9,33.4,34.2,27.7,19.2,93,67,36,30.14,29.77,0,0,0,0.00
2014-3-5,51.1,41.6,32.4,30.7,25.1,14.2,76,54,28,30.21,30.00,0,0,0,0.00
2014-3-6,56.2,46.8,37.6,36.3,21.5,12.4,89,41,21,29.96,29.68,0,0,0,0.00
2014-3-7,42.2,37.1,33.8,35.3,28.3,22.7,91,72,54,30.23,29.82,0,0,0,0.09
2014-3-8,48.5,38.5,30.9,27.1,22.5,11.6,74,55,32,30.39,30.25,0,0,0,0.00
2014-3-9,61.3,49.5,38.0,20.2,13.1,3.7,42,25,12,30.32,30.04,0,0,0,0.00
2014-3-10,59.9,48.4,34.1,31.7,13.7,5.1,83,29,12,30.02,29.59,0,0,0,0.04
2014-3-11,35.9,31.9,28.7,26.6,23.1,20.1,88,70,59,30.37,29.90,0,0,0,0.04
2014-3-12,46.5,35.9,27.2,17.1,12.8,8.7,59,39,25,30.45,30.19,0,0,0,0.01
2014-3-13,52.5,39.2,31.6,21.2,12.8,3.5,61,35,16,30.18,29.90,0,0,0,0.00
2014-3-14,54.7,43.4,33.4,33.3,12.6,3.8,80,30,20,30.11,29.93,0,0,0,0.00
2014-3-15,45.8,39.6,36.0,29.2,17.8,8.1,72,43,25,30.42,30.06,0,0,0,0.00
2014-3-16,58.3,44.0,32.1,19.9,12.6,5.8,40,28,19,30.46,29.99,0,0,0,0.00
2014-3-17,48.9,47.8,46.8,16.2,15.9,15.5,29,28,26,29.94,29.94,0,0,3,0.00
2014-3-18,34.7,29.7,26.0,20.7,15.2,12.3,78,55,41,30.23,29.96,0,0,0,0.00
2014-3-19,47.1,35.0,25.0,15.2,8.8,-5.1,55,36,15,30.30,30.11,0,0,0,0.00
2014-3-20,57.3,45.8,36.0,8.9,1.9,-6.9,21,16,11,30.09,29.83,0,0,0,0.00
2014-3-21,48.2,39.6,29.5,19.4,15.2,10.2,56,38,22,30.00,29.86,0,0,0,0.00
2014-3-22,47.1,38.0,32.5,34.0,22.6,7.3,93,58,27,30.21,29.88,0,0,0,0.13
2014-3-23,54.5,43.1,31.0,14.0,5.7,-2.0,36,22,10,30.22,30.02,0,0,0,0.00
2014-3-26,57.5,42.4,32.1,32.9,23.1,6.4,92,58,13,29.67,29.23,0,0,0,0.00
2014-3-27,41.2,35.3,31.3,30.3,27.4,22.8,91,73,55,30.00,29.66,0,0,0,0.00
2014-3-28,49.8,39.9,30.0,25.7,20.7,13.4,74,48,31,30.17,29.98,0,0,0,0.00
2014-3-29,59.5,49.9,39.3,21.3,18.2,13.9,41,29,22,30.04,29.58,0,0,0,0.00
2014-3-30,55.3,43.8,30.7,31.6,23.5,17.0,94,53,22,29.88,29.30,0,0,0,0.00
2014-3-31,43.6,34.9,26.1,29.0,23.2,17.0,79,64,36,30.09,29.71,0,0,0,0.00
2014-4-1,46.8,36.8,31.5,30.9,26.5,16.2,89,69,29,29.73,29.57,0,0,0,0.05
2014-4-2,38.0,31.8,28.2,30.1,26.6,21.1,92,82,62,29.91,29.67,0,0,0,0.25
2014-4-3,44.2,34.7,28.2,27.9,23.4,18.3,90,66,37,30.10,29.89,0,0,0,0.09
2014-4-4,49.6,40.7,32.8,26.2,18.2,13.2,51,41,23,30.04,29.77,0,0,0,0.00
2014-4-5,46.0,41.0,36.5,36.0,25.5,17.5,83,55,35,30.00,29.75,0,0,0,0.03
2014-4-6,46.0,40.5,35.3,34.4,28.0,24.7,75,61,53,30.10,30.00,0,0,0,0.02
2014-4-7,43.9,40.7,38.5,28.4,26.8,24.9,61,57,53,30.21,30.09,0,0,0,0.00
2014-4-8,65.6,53.7,42.9,29.4,23.6,17.2,47,32,22,30.21,29.94,0,0,0,0.00
2014-4-9,74.6,60.1,49.2,26.6,21.2,14.8,39,23,12,29.93,29.70,7,1,18,0.00
2014-4-10,66.4,57.0,47.0,34.6,26.3,19.6,48,32,21,29.88,29.67,0,0,0,0.00
2014-4-11,69.5,58.4,48.5,34.6,25.4,18.9,37,29,17,29.86,29.54,9,2,13,0.00
2014-4-12,67.9,57.1,50.1,34.1,25.3,18.9,54,30,23,29.55,29.44,7,2,12,0.00
2014-4-13,52.3,40.4,34.9,36.3,27.5,16.3,88,63,38,30.09,29.41,0,0,0,0.28
2014-4-14,51.0,37.7,29.5,21.1,15.6,-4.0,65,44,10,30.30,30.12,0,0,0,0.00
2014-4-15,65.6,50.8,38.9,28.0,13.5,1.4,44,23,14,30.12,29.61,16,4,24,0.00
2014-4-16,52.9,45.5,38.5,22.8,16.0,11.5,41,31,22,29.94,29.72,11,1,13,0.00
2014-4-17,66.8,51.3,38.3,26.1,18.1,10.2,37,27,19,30.01,29.62,0,0,0,0.00
2014-4-18,72.1,60.8,49.0,43.1,27.2,14.8,67,33,13,29.70,29.55,25,3,28,0.00
2014-4-19,68.3,55.5,44.8,38.3,32.8,26.3,71,45,23,29.85,29.68,4,0,5,0.00
2014-4-20,66.0,57.1,51.4,37.2,30.3,19.4,47,37,25,29.98,29.75,0,0,0,0.00
2014-4-21,58.3,49.8,44.5,28.7,18.3,11.2,41,29,21,30.05,29.97,0,0,0,0.00
2014-4-22,70.8,59.8,37.5,35.1,26.6,19.6,91,34,16,29.63,29.22,0,0,0,0.05
2014-4-23,45.9,39.6,33.8,35.1,22.7,11.1,94,56,25,30.05,29.62,10,3,19,0.01
2014-4-24,64.0,48.7,33.3,25.4,19.1,9.9,54,33,18,30.03,29.68,9,3,18,0.00
2014-4-25,64.5,53.9,47.0,36.9,23.7,14.4,61,33,15,29.67,29.32,4,0,6,0.03
2014-4-26,51.4,40.8,35.3,39.0,35.8,29.1,94,84,42,29.65,29.25,0,0,0,0.46
2014-4-27,46.7,38.9,32.4,31.9,25.0,19.3,91,59,39,29.93,29.67,0,0,0,0.04
2014-4-28,42.8,36.1,32.1,31.4,26.0,15.4,93,69,37,30.33,29.87,16,2,19,0.15
2014-4-29,47.4,38.9,31.0,23.6,18.4,14.2,61,45,26,30.43,30.30,0,0,0,0.00
2014-4-30,52.6,44.9,34.6,29.1,22.9,17.7,62,43,31,30.39,30.17,6,3,17,0.00
2014-5-1,51.1,43.8,39.2,24.9,18.0,13.4,41,35,27,30.23,30.16,5,3,9,0.00
2014-5-2,71.5,59.6,45.2,32.5,26.5,17.7,48,30,18,30.00,29.75,5,3,14,0.00
2014-5-3,80.5,68.4,52.1,33.2,21.1,5.6,34,18,8,29.73,29.49,20,4,29,0.00
2014-5-4,77.2,69.4,57.6,30.2,9.7,-3.8,34,11,5,29.55,29.41,0,0,0,0.00
2014-5-5,73.5,66.3,54.8,31.9,11.3,0.5,39,14,7,29.56,29.35,5,0,7,0.00
2014-5-6,69.6,54.5,44.1,39.7,31.1,12.7,74,44,18,29.46,29.27,19,5,27,0.03
2014-5-7,45.0,40.1,36.9,40.5,35.0,30.7,94,82,64,29.81,29.43,5,2,11,0.37
2014-5-8,50.7,41.9,34.1,41.6,36.8,32.8,96,84,53,29.92,29.78,8,2,14,0.29
2014-5-29,73.5,63.9,55.3,50.0,40.2,23.4,59,44,16,29.77,29.45,0,0,0,0.00
2014-5-30,79.2,66.8,53.1,46.4,36.0,21.9,58,35,15,29.77,29.56,0,0,0,0.00
2014-5-31,80.9,71.0,60.1,37.0,24.7,10.3,38,20,8,29.62,29.40,0,0,0,0.00
2014-6-1,74.8,63.7,53.8,42.3,33.7,28.0,52,33,21,29.74,29.52,5,3,15,0.00
2014-6-2,80.6,67.4,48.0,39.9,31.8,21.7,62,30,12,29.78,29.42,12,4,44,0.00
2014-6-3,84.0,74.1,64.8,46.9,26.8,12.8,47,18,10,29.54,29.37,11,6,34,0.00
2014-6-4,78.5,67.2,54.1,41.0,33.5,28.3,46,29,19,29.67,29.50,6,3,14,0.03
2014-6-5,77.4,67.4,52.6,44.0,33.7,18.8,51,30,16,29.74,29.58,8,3,12,0.00
2014-6-6,81.6,67.9,51.9,38.4,26.0,6.8,49,22,6,29.67,29.51,5,1,7,0.00
2014-6-7,79.0,67.1,56.0,39.0,29.0,20.7,42,25,15,29.70,29.56,0,0,0,0.00
2014-6-8,69.8,63.6,55.3,39.1,31.2,19.2,52,30,20,29.85,29.59,0,0,0,0.00
2014-6-9,76.5,64.9,51.0,43.2,30.9,24.8,43,29,19,29.89,29.61,6,2,12,0.00
2014-6-10,74.9,65.0,60.5,35.7,30.6,24.8,32,28,22,29.61,29.53,9,1,9,0.00
2014-6-11,78.3,68.6,57.5,36.6,27.9,20.5,38,22,14,29.65,29.44,0,0,0,0.00
2014-6-12,85.3,71.7,57.3,38.1,28.5,19.0,35,21,11,29.66,29.38,0,0,0,0.00
2014-6-13,80.1,72.3,59.6,34.2,24.3,14.6,35,18,10,29.53,29.32,0,0,0,0.00
2014-6-14,64.3,57.1,50.0,37.2,33.5,26.9,56,41,31,29.76,29.57,6,3,24,0.00
2014-6-15,77.2,62.5,49.0,41.3,33.7,22.1,55,36,13,29.70,29.38,10,3,26,0.00
2014-6-16,71.4,62.3,51.8,41.5,34.9,25.2,51,37,19,29.47,29.32,13,5,33,0.00
2014-6-17,57.8,45.9,38.0,46.7,41.6,36.0,95,86,53,29.96,29.41,8,3,26,0.48
2014-6-18,61.5,47.0,36.6,38.0,34.2,29.6,95,65,30,30.03,29.90,11,1,14,0.00
2014-6-19,55.9,46.6,42.2,34.7,31.6,28.7,67,56,44,30.00,29.94,0,0,0,0.00
2014-6-20,85.9,71.3,53.3,37.8,25.0,15.1,33,19,10,29.84,29.55,0,0,0,0.00
2014-6-21,82.2,72.6,61.5,40.5,26.2,12.6,34,18,9,29.59,29.49,0,0,0,0.00
2014-6-22,83.6,71.5,60.2,41.4,29.2,14.2,48,22,13,29.66,29.52,5,0,9,0.00
2014-6-23,80.6,70.0,59.2,53.0,36.3,25.8,58,30,20,29.68,29.54,4,1,12,0.00
2014-6-24,87.8,73.2,60.2,49.3,33.9,21.4,43,25,12,29.65,29.42,7,3,17,0.00
2014-6-25,87.6,77.2,63.3,41.6,31.0,20.5,34,19,10,29.56,29.34,9,3,18,0.00
2014-6-26,80.1,69.8,52.6,50.1,37.4,22.1,87,37,12,29.58,29.30,0,0,0,0.10
2014-6-27,71.6,59.7,49.2,51.5,45.9,40.2,88,63,37,29.70,29.57,0,0,0,0.00
2014-6-28,79.9,67.0,52.9,47.2,37.2,27.0,61,37,15,29.71,29.56,0,0,0,0.00
2014-6-29,83.4,71.4,56.7,48.8,37.5,26.9,44,30,19,29.74,29.57,7,2,13,0.00
2014-6-30,80.3,70.1,57.3,43.5,36.0,24.6,52,30,19,29.79,29.56,9,4,13,0.00
2014-7-1,84.9,69.4,52.5,45.4,31.3,16.7,44,26,8,29.84,29.62,7,2,9,0.00
2014-7-2,90.7,76.0,59.9,46.7,35.1,27.4,42,24,11,29.71,29.56,7,2,18,0.00
2014-7-3,90.1,77.7,69.8,55.3,42.3,35.0,43,29,17,29.69,29.57,12,4,21,0.00
2014-7-4,92.3,79.5,66.4,50.7,37.5,28.9,44,24,11,29.75,29.59,5,0,7,0.00
2014-7-5,91.2,77.6,65.6,47.9,40.1,30.5,44,27,15,29.78,29.65,0,0,0,0.00
2014-7-6,87.9,79.4,67.9,53.0,43.2,33.9,42,28,20,29.76,29.58,5,3,10,0.00
2014-7-7,91.6,80.6,65.5,50.7,40.7,31.0,42,25,14,29.67,29.52,5,2,10,0.00
2014-7-8,91.2,79.5,68.9,50.0,39.8,30.7,35,25,15,29.67,29.55,8,2,15,0.00
2014-7-9,82.6,74.1,68.8,56.1,46.8,41.7,53,38,31,29.68,29.54,5,2,7,0.00
2014-7-10,85.1,71.1,59.4,58.6,54.9,50.8,94,60,36,29.75,29.53,9,3,30,0.26
2014-7-11,75.7,67.1,58.6,62.8,57.8,51.2,92,73,53,29.81,29.66,6,2,10,0.00
2014-7-12,88.0,74.9,61.8,59.9,50.5,40.6,69,46,19,29.83,29.68,2,0,5,0.00
2014-7-13,91.4,78.9,67.3,54.7,47.1,36.0,52,35,19,29.80,29.65,0,0,0,0.00
2014-7-14,95.9,81.9,70.1,52.0,42.7,33.0,40,26,11,29.73,29.54,0,0,0,0.00
2014-7-15,93.6,78.7,69.4,50.5,43.0,37.8,46,29,16,29.70,29.48,2,0,3,0.00
2014-7-16,84.1,73.3,62.6,52.3,46.1,40.4,59,40,22,29.68,29.58,0,0,0,0.00
2014-7-17,87.0,74.8,60.5,44.7,38.1,27.9,46,29,14,29.71,29.53,5,0,8,0.00
2014-7-18,89.9,77.5,65.6,49.9,39.2,28.2,45,26,15,29.67,29.54,6,2,13,0.00
2014-7-19,90.3,79.7,66.6,44.3,38.9,32.1,35,24,13,29.66,29.55,5,1,16,0.00
2014-7-20,95.3,77.7,67.9,58.2,42.8,33.3,58,31,18,29.65,29.50,26,2,28,0.00
2014-7-21,93.4,79.5,65.7,46.0,35.0,22.4,44,22,11,29.76,29.54,16,6,22,0.00
2014-7-22,93.6,80.8,65.7,42.5,32.5,24.3,35,19,9,29.83,29.61,10,2,20,0.00
2014-7-23,97.1,83.8,70.9,40.8,34.0,24.5,31,17,11,29.76,29.50,0,0,0,0.00
2014-7-24,95.4,81.9,72.1,48.2,37.5,27.3,40,21,9,29.63,29.47,0,0,0,0.00
2014-7-25,93.2,76.8,62.0,50.7,39.5,31.6,49,28,12,29.70,29.51,0,0,0,0.01
2014-7-26,88.6,75.4,67.9,48.1,44.9,42.4,45,35,21,29.72,29.59,0,0,0,0.00
2014-7-27,90.7,79.6,69.1,52.8,42.1,34.8,52,28,17,29.80,29.67,0,0,0,0.00
2014-7-28,83.8,72.1,64.1,65.1,54.5,41.9,88,58,28,29.87,29.69,0,0,0,0.04
2014-7-29,74.9,64.4,60.8,66.7,60.0,56.9,96,86,61,29.90,29.78,0,0,0,0.03
2014-7-30,78.1,66.6,58.9,58.6,56.2,52.3,90,71,44,29.91,29.79,0,0,0,0.00
2014-7-31,82.4,69.3,56.7,55.8,52.4,45.1,83,57,27,29.88,29.76,0,0,0,0.00
2014-8-1,82.3,72.9,61.4,54.3,49.9,43.8,70,46,27,29.83,29.68,0,0,0,0.00
2014-8-2,78.3,67.4,61.9,50.7,46.6,44.2,56,48,38,29.78,29.70,0,0,0,0.00
2014-8-6,77.8,74.6,71.3,52.8,49.6,46.4,52,42,33,29.71,29.65,0,0,0,0.00
2014-8-7,76.1,67.0,55.8,52.3,49.5,45.8,71,55,40,29.77,29.71,0,0,0,0.00
2014-8-8,71.3,65.2,57.2,50.7,44.7,40.0,71,50,32,29.80,29.70,0,0,0,0.00
2014-8-9,79.7,70.4,60.8,48.9,45.6,41.9,59,42,30,29.81,29.74,0,0,0,0.00
2014-8-10,81.3,71.9,59.4,51.2,44.0,40.1,52,38,26,29.86,29.77,0,0,0,0.00
2014-8-11,85.0,77.6,64.4,47.6,43.0,40.1,44,30,23,29.83,29.71,0,0,0,0.00
2014-8-12,82.0,72.4,64.0,55.7,48.6,42.4,73,44,30,29.85,29.69,0,0,0,0.00
2014-8-13,78.9,68.9,61.2,55.9,50.0,47.3,68,52,35,29.82,29.64,0,0,0,0.00
2014-8-14,86.1,73.1,61.3,54.6,47.2,35.8,71,44,17,29.76,29.59,0,0,0,0.00
2014-8-15,89.0,74.4,66.3,46.5,39.5,27.7,43,31,11,29.74,29.60,0,0,0,0.00
2014-8-16,88.6,75.3,62.1,43.8,36.5,29.4,37,25,14,29.81,29.66,0,0,0,0.00
2014-8-17,87.8,76.2,61.0,45.5,36.9,25.8,42,26,11,29.82,29.58,0,0,0,0.00
2014-8-18,92.5,78.3,63.7,36.2,28.3,15.4,32,18,6,29.67,29.47,0,0,0,0.00
2014-8-19,73.0,63.2,57.2,57.9,51.3,37.0,89,68,27,29.67,29.50,0,0,0,0.06
2014-8-20,80.3,63.8,53.8,58.4,50.1,40.3,95,66,24,29.78,29.61,0,0,0,0.19
2014-8-21,80.3,66.4,54.8,50.6,43.7,34.6,66,46,24,29.84,29.69,0,0,0,0.00
2014-8-22,75.3,62.6,57.6,48.0,41.6,37.2,62,47,37,29.75,29.67,0,0,0,0.00
2014-8-23,68.8,59.0,46.7,50.4,44.1,37.6,93,61,34,29.88,29.62,0,0,0,0.02
2014-8-24,75.6,61.1,48.3,50.3,42.6,36.3,79,53,30,29.86,29.66,0,0,0,5.87
2014-8-25,79.6,63.5,51.4,52.4,45.9,38.6,89,57,23,29.84,29.61,0,0,0,0.00
2014-8-26,70.8,61.4,53.5,54.4,48.1,41.4,84,63,40,29.90,29.66,0,0,0,0.00
2014-8-27,68.8,60.3,53.6,50.6,48.0,45.7,80,65,46,29.99,29.87,0,0,0,0.00
2014-8-28,79.2,64.3,50.5,50.1,44.0,35.8,81,52,22,30.01,29.82,0,0,0,0.00
2014-8-29,62.3,58.3,55.0,43.4,40.0,36.5,54,51,46,29.87,29.76,0,0,0,0.00
2014-10-16,61.2,51.1,42.6,39.3,35.7,30.0,69,56,40,29.94,29.82,0,0,0,0.00
2014-10-17,65.7,55.0,45.2,39.5,32.5,27.5,58,43,29,29.93,29.77,0,0,0,0.00
2014-10-18,65.8,58.1,51.7,39.4,33.8,29.9,53,40,32,29.87,29.75,0,0,0,0.00
2014-10-19,65.8,55.3,46.6,41.2,36.9,33.9,62,51,35,29.95,29.79,0,0,0,0.00
2014-10-20,68.5,60.7,50.9,39.5,36.7,33.8,53,42,34,29.90,29.59,0,0,0,0.00
2014-10-21,71.3,58.7,44.3,41.8,37.0,26.2,58,45,31,29.85,29.56,0,0,0,0.00
2014-10-22,56.7,47.1,35.8,33.8,29.7,26.8,78,52,37,30.11,29.84,0,0,0,0.00
2014-10-23,72.4,57.8,46.0,36.3,28.1,22.2,49,34,15,30.05,29.82,0,0,0,0.00
2014-10-24,74.9,61.6,53.2,30.8,25.5,21.2,34,26,16,29.97,29.80,0,0,0,0.00
2014-10-25,72.0,63.9,54.8,39.2,30.0,22.8,45,28,21,29.89,29.62,0,0,0,0.00
2014-10-26,63.4,54.4,42.2,41.7,34.5,27.6,65,47,37,29.86,29.59,0,0,0,0.00
2014-10-27,47.0,40.3,34.6,31.2,23.7,16.7,73,53,30,30.15,29.86,0,0,0,0.00
2014-10-28,51.7,41.6,31.9,26.6,19.4,12.7,76,43,25,30.26,30.10,0,0,0,0.00
2014-10-29,62.0,49.0,39.8,23.9,17.6,14.6,38,29,17,30.24,30.06,0,0,0,0.00
2014-10-30,66.1,53.9,44.5,26.2,19.3,15.8,35,26,19,30.16,29.93,0,0,0,0.00
2014-10-31,70.6,61.0,51.3,31.6,20.5,13.3,28,21,12,29.92,29.48,0,0,0,0.00
2014-11-1,68.6,57.9,43.9,37.7,31.1,17.8,59,38,24,29.61,29.27,0,0,0,0.00
2014-11-2,45.2,38.2,33.1,35.8,32.0,22.3,94,80,40,30.02,29.61,0,0,0,0.17
2014-11-3,39.3,33.9,31.4,31.6,28.2,23.8,95,80,65,30.38,30.04,0,0,0,0.11
2014-11-4,43.4,35.7,27.5,28.7,24.8,21.5,79,65,52,30.49,30.33,0,0,0,0.01
2014-11-5,52.8,42.5,36.1,31.5,26.6,22.5,68,54,35,30.44,30.29,0,0,0,0.00
2014-11-6,56.9,46.8,37.0,34.6,27.3,24.0,63,48,33,30.41,30.11,0,0,0,0.00
2014-11-7,63.9,50.6,44.4,34.5,30.1,24.3,59,46,29,30.21,30.03,0,0,0,0.00
2014-11-8,55.4,46.3,37.6,32.2,27.1,22.9,64,47,35,30.32,30.13,0,0,0,0.00
2014-11-9,62.4,50.7,40.6,28.1,23.5,20.7,49,35,21,30.11,29.46,0,0,0,0.00
2014-11-10,59.8,42.1,31.1,33.9,23.4,16.1,78,51,21,29.95,29.34,0,0,0,0.00
2014-11-11,42.5,32.3,25.3,19.5,16.0,12.9,65,52,30,30.06,29.89,0,0,0,0.00
2014-11-12,28.2,24.9,21.3,15.2,14.1,11.1,73,63,56,30.27,30.02,0,0,0,0.00
2014-11-13,34.0,27.1,21.0,29.1,19.4,11.4,88,73,55,30.25,30.04,0,0,0,0.01
2014-11-14,45.7,38.8,30.1,30.4,27.6,20.9,88,66,37,30.08,29.75,0,0,0,0.00
2014-11-15,45.5,26.8,19.8,29.8,19.7,12.7,90,76,39,30.33,29.73,0,0,0,0.00
2014-11-16,26.9,18.0,14.3,15.4,10.8,5.6,88,73,56,30.70,30.34,0,0,0,0.13
2014-11-17,25.3,18.9,11.9,15.2,10.9,6.8,80,71,64,30.71,30.55,0,0,0,0.04
2014-11-18,32.6,24.2,18.4,18.0,13.2,10.2,74,63,50,30.59,30.33,0,0,0,0.05
2014-11-19,45.1,35.9,28.6,20.8,12.0,5.1,54,38,25,30.31,30.04,0,0,0,0.01
2014-11-20,43.1,37.1,33.4,24.2,16.4,9.9,52,43,35,30.07,29.96,0,0,0,0.00
2014-11-21,47.7,38.7,31.2,23.5,18.0,12.1,54,43,31,30.04,29.91,0,0,0,0.00
2014-11-22,38.9,37.9,36.6,21.8,21.2,20.4,53,50,48,29.93,29.85,0,0,0,0.00
2014-11-23,39.9,39.9,39.9,0.0,0.0,0.0,0,0,100,29.28,29.07,0,0,0,0.00
2014-11-24,39.9,39.9,39.9,0.0,0.0,0.0,0,0,100,29.48,29.22,0,0,0,0.00
2014-11-25,39.9,39.9,39.9,0.0,0.0,0.0,0,0,100,29.47,29.39,0,0,0,0.00
2014-11-26,49.1,41.3,39.9,26.4,7.3,0.0,49,14,41,29.70,29.41,0,0,1,0.00
2014-11-27,53.6,48.6,41.9,21.1,14.7,9.7,40,26,18,29.67,29.38,0,0,0,0.00
2014-11-28,54.8,51.3,48.8,10.9,8.7,4.3,20,18,14,29.36,29.06,0,0,0,0.00
2014-11-30,44.2,33.8,29.0,29.5,25.3,12.0,95,76,27,29.53,29.05,0,0,0,0.00
2014-12-1,44.3,38.2,28.1,31.2,26.1,20.2,95,64,40,29.65,29.48,0,0,0,0.00
2014-12-2,45.4,41.2,37.8,24.4,22.2,18.4,56,47,38,29.45,29.33,0,0,0,0.00
2014-12-3,42.6,39.2,35.9,37.7,32.0,22.7,94,76,57,29.41,29.29,0,0,0,0.00
2014-12-4,48.5,42.5,39.2,37.3,35.9,32.5,87,78,61,29.38,29.24,0,0,0,0.00
2014-12-5,46.7,42.0,38.3,36.7,33.8,30.4,87,73,62,29.56,29.37,0,0,0,0.00
2014-12-6,47.3,42.7,38.9,31.6,29.9,28.6,73,61,49,29.63,29.52,0,0,0,0.62
2014-12-7,48.0,41.8,38.0,31.0,28.7,26.2,69,60,48,29.72,29.61,0,0,0,0.00
2014-12-8,51.0,42.4,37.6,29.0,24.8,19.6,64,50,35,29.64,29.55,0,0,0,0.00
2014-12-9,48.3,40.6,34.6,27.0,22.6,19.4,64,49,36,29.64,29.51,0,0,0,0.00
2014-12-10,46.7,41.2,35.6,23.9,19.7,14.5,58,43,28,29.55,29.34,0,0,0,0.00
2014-12-11,48.5,43.1,36.9,28.8,21.8,13.7,58,43,29,29.37,29.22,0,0,0,0.00
2014-12-12,54.1,46.3,39.3,30.3,24.8,19.2,66,44,26,29.27,29.06,0,0,0,0.00
2014-12-13,38.9,31.8,28.4,31.7,29.5,26.9,95,91,75,29.36,29.09,10,2,14,0.18
2014-12-14,28.4,25.9,24.5,26.9,24.1,22.5,94,93,92,29.53,29.38,11,4,13,0.00
2014-12-15,30.6,24.8,20.8,24.0,19.9,18.0,91,82,63,29.72,29.53,5,2,14,0.00
2014-12-16,36.9,33.0,28.4,22.1,19.4,16.7,73,58,47,29.48,29.35,7,3,16,0.01
2014-12-17,37.0,33.3,30.1,27.1,21.3,18.0,83,62,49,29.44,29.31,4,0,7,0.06
2014-12-18,35.2,29.9,27.9,30.3,26.9,22.2,94,88,78,29.62,29.43,4,1,7,0.06
2014-12-19,36.2,31.6,26.9,24.8,21.8,17.7,89,68,47,30.17,29.52,7,3,12,0.01
2014-12-20,34.6,31.9,30.0,30.1,28.5,23.5,94,87,67,30.17,30.04,6,3,13,0.02
2014-12-21,38.5,33.3,29.8,37.7,31.4,27.9,97,93,79,30.06,29.92,10,4,23,0.39
2014-12-22,35.0,32.1,26.4,32.9,28.2,16.6,96,86,54,30.20,29.90,14,5,24,0.46
2014-12-23,28.7,23.6,19.4,24.4,18.0,13.3,93,80,53,30.49,30.23,6,2,16,0.01